Flag for India

Past Weather in 13°02'31.3"N, 80°10'39.3"E, India — Yesterday and Last 2 Weeks

Now
88 °F

Passing clouds.


Feels Like: 108 °F
Forecast: 96 / 86 °F
Wind: 7 mph from Southwest

Location: Madras / Minambakkam

Current Time: May 27, 2020 at 3:01:07 am

Latest Report: May 27, 2020 at 2:30 am


Visibility: 4 mi

Pressure: 29.74 "Hg

Humidity: 84%

Dew Point: 82 °F

Location of 13°02'31.3"N, 80°10'39.3"ELocation

Past Weather in 13°02'31.3"N, 80°10'39.3"E — Graph

°F

13°02'31.3"N, 80°10'39.3"E Temperature Yesterday

Maximum temperature yesterday: 100 °F (at 2:00 pm)
Minimum temperature yesterday: 86 °F (at 1:00 am)
Average temperature yesterday: 91 °F

High & Low Weather Summary for the Past Weeks

 TemperatureHumidityPressure
High108 °F (May 20, 3:30 pm)94% (May 14, 2:30 pm)29.83 "Hg (May 14, 2:30 pm)
Low77 °F (May 14, 2:30 pm)28% (May 20, 2:30 pm)29.45 "Hg (May 19, 3:30 pm)
Average91 °F68%29.67 "Hg
* Reported May 12 1:30 am — May 27 2:00 am, 13°02'31.3"N, 80°10'39.3"E. Weather by CustomWeather, © 2020

Note: Actual official high and low records may vary slightly from our data, if they occured in-between our weather recording intervals... More about our weather records

13°02'31.3"N, 80°10'39.3"E Weather History for the Previous 24 Hours

Scroll right to see more
 ConditionsComfort  
Time TempWeatherWind HumidityBarometerVisibility
2:00 am
Wed, May 27
88 °FPassing clouds.8 mph84%29.74 "Hg4 mi
1:30 am88 °FPassing clouds.7 mph84%29.74 "Hg4 mi
1:00 am88 °FPassing clouds.8 mph79%29.77 "Hg4 mi
12:30 am88 °FPassing clouds.7 mph79%29.77 "Hg4 mi
12:00 am88 °FPassing clouds.9 mph79%29.77 "Hg4 mi
11:30 pm
Tue, May 26
88 °FPassing clouds.9 mph84%29.77 "Hg4 mi
11:00 pm88 °FPassing clouds.9 mph84%29.77 "Hg4 mi
10:30 pm88 °FPassing clouds.9 mph84%29.77 "Hg4 mi
10:00 pm88 °FPassing clouds.7 mph84%29.77 "Hg4 mi
9:30 pm88 °FPassing clouds.12 mph84%29.77 "Hg4 mi
9:00 pm88 °FPassing clouds.13 mph84%29.74 "Hg4 mi
8:30 pm90 °FPassing clouds.10 mph75%29.74 "Hg4 mi
8:00 pm90 °FPassing clouds.13 mph75%29.71 "Hg4 mi
7:30 pm90 °FPassing clouds.14 mph75%29.71 "Hg4 mi
7:00 pm90 °FPassing clouds.9 mph75%29.71 "Hg4 mi
6:30 pm91 °FPassing clouds.9 mph71%29.71 "Hg4 mi
5:30 pm93 °FPassing clouds.12 mph71%29.68 "Hg4 mi
5:00 pm95 °FPassing clouds.12 mph67%29.68 "Hg4 mi
4:30 pm97 °FPassing clouds.12 mph63%29.68 "Hg4 mi
4:00 pm97 °FPassing clouds.12 mph60%29.65 "Hg4 mi
3:30 pm99 °FPassing clouds.12 mph57%29.65 "Hg4 mi
3:00 pm100 °FPassing clouds.15 mph53%29.68 "Hg4 mi
2:30 pm100 °FPassing clouds.14 mph53%29.68 "Hg4 mi
2:00 pm100 °FPassing clouds.12 mph53%29.71 "Hg4 mi
1:30 pm99 °FScattered clouds.14 mph53%29.71 "Hg4 mi
1:00 pm97 °FScattered clouds.12 mph56%29.71 "Hg4 mi
12:30 pm97 °FScattered clouds.9 mph60%29.74 "Hg4 mi
12:00 pm99 °FScattered clouds.9 mph57%29.74 "Hg4 mi
11:30 am99 °FScattered clouds.8 mph57%29.77 "Hg4 mi
11:00 am99 °FScattered clouds.7 mph53%29.77 "Hg4 mi
10:30 am97 °FScattered clouds.8 mph56%29.80 "Hg4 mi
10:00 am95 °FScattered clouds.8 mph60%29.80 "Hg4 mi
9:30 am93 °FScattered clouds.10 mph63%29.80 "Hg4 mi
9:00 am93 °FScattered clouds.9 mph63%29.80 "Hg4 mi
8:30 am91 °FScattered clouds.7 mph71%29.80 "Hg4 mi
8:00 am90 °FScattered clouds.8 mph75%29.80 "Hg4 mi
7:30 am88 °FScattered clouds.8 mph79%29.77 "Hg4 mi
6:30 am86 °FScattered clouds.6 mph89%29.77 "Hg4 mi
6:00 am86 °FPassing clouds.7 mph89%29.74 "Hg4 mi
5:30 am86 °FPassing clouds.6 mph89%29.74 "Hg4 mi
5:00 am86 °FPassing clouds.3 mph84%29.74 "Hg4 mi
4:30 am86 °FPassing clouds.3 mph84%29.74 "Hg4 mi
4:00 am86 °FPassing clouds.5 mph84%29.74 "Hg4 mi
3:30 am86 °FPassing clouds.5 mph84%29.74 "Hg4 mi
3:00 am86 °FPassing clouds.5 mph84%29.74 "Hg4 mi
Weather by CustomWeather, © 2020

See weather overview

Advertising